�������l�o���
Date,Time,MP-1(��Sv/h),MP-2(��Sv/h),MP-3(��Sv/h),MP-4(��Sv/h),MP-5(��Sv/h),MP-6(��Sv/h),MP-7(��Sv/h),MP-8(��Sv/h),����,����(m/s),���J
2020/02/24,00:00,0.693,0.997,0.655,1.228,0.876,0.401,0.698,0.663,��,1.1,��
2020/02/24,00:10,0.696,0.996,0.658,1.228,0.876,0.400,0.699,0.665,���k��,0.9,��
2020/02/24,00:20,0.696,0.996,0.656,1.227,0.876,0.400,0.698,0.662,���k��,1.7,��
2020/02/24,00:30,0.697,0.998,0.656,1.228,0.875,0.401,0.698,0.664,���k��,0.6,��
2020/02/24,00:40,0.695,0.996,0.655,1.225,0.875,0.399,0.698,0.662,�k��,1.1,��
2020/02/24,00:50,0.693,0.994,0.656,1.229,0.874,0.401,0.698,0.663,���쓌,1.9,��
2020/02/24,01:00,0.696,0.995,0.657,1.227,0.876,0.399,0.697,0.662,��쓌,2.2,��
2020/02/24,01:10,0.694,0.995,0.656,1.231,0.872,0.400,0.698,0.664,���쐼,1.2,��
2020/02/24,01:20,0.695,0.995,0.654,1.228,0.875,0.401,0.699,0.662,�k�k��,1.7,��
2020/02/24,01:30,0.693,0.997,0.656,1.230,0.873,0.399,0.699,0.663,�k,1.5,��
2020/02/24,01:40,0.695,0.997,0.657,1.228,0.873,0.400,0.698,0.663,�k��,2.3,��
2020/02/24,01:50,0.694,0.995,0.656,1.228,0.875,0.401,0.699,0.663,�k�k��,1.5,��
2020/02/24,02:00,0.694,0.995,0.656,1.229,0.876,0.399,0.699,0.664,�k,1.5,��
2020/02/24,02:10,0.693,0.995,0.655,1.227,0.876,0.401,0.696,0.662,�k,1.4,��
2020/02/24,02:20,0.693,0.998,0.655,1.227,0.874,0.401,0.698,0.663,�k�k��,2.2,��
2020/02/24,02:30,0.691,0.996,0.653,1.228,0.876,0.400,0.697,0.662,�k,2.3,��
2020/02/24,02:40,0.692,0.995,0.655,1.228,0.875,0.401,0.699,0.664,�k,2.5,��
2020/02/24,02:50,0.692,0.995,0.654,1.227,0.874,0.402,0.697,0.663,�k�k��,2.6,��
2020/02/24,03:00,0.693,0.995,0.655,1.226,0.875,0.401,0.696,0.661,�k,2.2,��
2020/02/24,03:10,0.694,0.994,0.654,1.229,0.873,0.398,0.697,0.662,�k,2.3,��
2020/02/24,03:20,0.693,0.996,0.655,1.228,0.873,0.400,0.697,0.664,�k��,2.3,��
2020/02/24,03:30,0.692,0.994,0.656,1.229,0.874,0.399,0.696,0.664,�k,1.2,��
2020/02/24,03:40,0.695,0.995,0.655,1.227,0.876,0.399,0.697,0.662,���k��,0.9,��
2020/02/24,03:50,0.694,0.996,0.654,1.225,0.875,0.400,0.697,0.663,-,CALM,��
2020/02/24,04:00,0.694,0.994,0.654,1.228,0.875,0.400,0.697,0.662,�k,1.5,��
2020/02/24,04:10,0.693,0.994,0.654,1.228,0.874,0.399,0.698,0.664,�k,1.5,��
2020/02/24,04:20,0.692,0.992,0.655,1.227,0.873,0.400,0.695,0.663,�k,2.0,��
2020/02/24,04:30,0.694,0.995,0.655,1.228,0.872,0.400,0.697,0.662,�k,2.0,��
2020/02/24,04:40,0.693,0.994,0.654,1.228,0.874,0.400,0.697,0.663,�k,1.7,��
2020/02/24,04:50,0.690,0.992,0.655,1.229,0.873,0.401,0.697,0.661,�k,3.1,��
2020/02/24,05:00,0.694,0.993,0.653,1.229,0.873,0.399,0.697,0.662,�k,2.6,��
2020/02/24,05:10,0.692,0.992,0.654,1.227,0.872,0.400,0.697,0.661,�k�k��,1.5,��
2020/02/24,05:20,0.692,0.993,0.654,1.226,0.872,0.399,0.696,0.662,�k�k��,1.4,��
2020/02/24,05:30,0.691,0.995,0.656,1.226,0.874,0.398,0.696,0.662,�k,1.1,��
2020/02/24,05:40,0.694,0.993,0.654,1.228,0.874,0.398,0.697,0.662,���쐼,1.1,��
2020/02/24,05:50,0.692,0.993,0.656,1.226,0.873,0.400,0.698,0.663,��쓌,0.8,��
2020/02/24,06:00,0.692,0.992,0.653,1.227,0.873,0.398,0.697,0.662,���쓌,0.9,��
2020/02/24,06:10,0.692,0.991,0.654,1.225,0.870,0.399,0.695,0.663,�쓌,0.9,��
2020/02/24,06:20,0.693,0.994,0.654,1.227,0.873,0.399,0.697,0.663,-,CALM,��
2020/02/24,06:30,0.693,0.993,0.655,1.226,0.874,0.397,0.696,0.661,�쓌,0.9,��
2020/02/24,06:40,0.691,0.993,0.655,1.227,0.873,0.400,0.697,0.663,��,1.1,��
2020/02/24,06:50,0.691,0.992,0.656,1.226,0.871,0.399,0.697,0.662,��,0.9,��
2020/02/24,07:00,0.692,0.993,0.654,1.229,0.872,0.399,0.697,0.662,-,CALM,��
2020/02/24,07:10,0.691,0.994,0.652,1.225,0.873,0.398,0.697,0.662,��쐼,0.6,��
2020/02/24,07:20,0.691,0.990,0.654,1.227,0.871,0.400,0.697,0.663,�k�k��,0.9,��
2020/02/24,07:30,0.693,0.991,0.653,1.226,0.873,0.399,0.696,0.664,-,CALM,��
2020/02/24,07:40,0.692,0.993,0.654,1.227,0.874,0.400,0.696,0.662,��쓌,0.6,��
2020/02/24,07:50,0.694,0.994,0.654,1.227,0.873,0.400,0.696,0.662,-,CALM,��
2020/02/24,08:00,0.692,0.993,0.655,1.228,0.875,0.400,0.698,0.663,�k��,0.9,��
2020/02/24,08:10,0.693,0.994,0.654,1.227,0.874,0.400,0.698,0.663,�k�k��,1.2,��
2020/02/24,08:20,0.692,0.994,0.652,1.227,0.873,0.398,0.698,0.665,-,CALM,��
2020/02/24,08:30,0.695,0.996,0.654,1.230,0.874,0.399,0.698,0.664,�k,0.6,��
2020/02/24,08:40,0.693,0.993,0.654,1.230,0.873,0.400,0.699,0.664,�k,1.2,��
2020/02/24,08:50,0.694,0.992,0.656,1.230,0.873,0.399,0.700,0.661,�k�k��,1.2,��
2020/02/24,09:00,0.694,0.993,0.655,1.226,0.875,0.400,0.699,0.664,�k�k��,1.5,��
2020/02/24,09:10,0.695,0.992,0.654,1.230,0.875,0.401,0.699,0.662,�k�k��,1.5,��
2020/02/24,09:20,0.695,0.991,0.654,1.227,0.875,0.399,0.698,0.663,���쓌,2.8,��
2020/02/24,09:30,0.693,0.990,0.655,1.227,0.876,0.399,0.698,0.663,���쓌,3.5,��
2020/02/24,09:40,0.696,0.992,0.656,1.229,0.874,0.401,0.697,0.664,��,2.8,��
2020/02/24,09:50,0.695,0.992,0.655,1.226,0.876,0.400,0.698,0.663,���쓌,2.2,��
2020/02/24,10:00,0.695,0.991,0.656,1.228,0.875,0.399,0.698,0.666,���쓌,2.8,��
2020/02/24,10:10,0.698,0.988,0.655,1.226,0.878,0.400,0.697,0.663,�쓌,3.1,��
2020/02/24,10:20,0.695,0.986,0.657,1.229,0.874,0.400,0.696,0.663,�쓌,1.5,�L
2020/02/24,10:30,0.695,0.990,0.655,1.229,0.877,0.400,0.696,0.663,�쓌,1.1,�L
2020/02/24,10:40,0.696,0.989,0.657,1.230,0.877,0.399,0.696,0.662,��쐼,2.2,�L
2020/02/24,10:50,0.696,0.991,0.656,1.228,0.877,0.401,0.697,0.664,��,5.7,��
2020/02/24,11:00,0.696,0.992,0.658,1.230,0.878,0.400,0.696,0.664,��,5.0,�L
2020/02/24,11:10,0.695,0.995,0.655,1.226,0.877,0.400,0.697,0.664,��,6.0,�L
2020/02/24,11:20,0.699,0.995,0.656,1.231,0.877,0.401,0.698,0.665,���쐼,7.0,�L
2020/02/24,11:30,0.698,0.997,0.658,1.230,0.878,0.400,0.697,0.663,��,7.2,�L
2020/02/24,11:40,0.699,0.996,0.657,1.231,0.879,0.401,0.697,0.664,���쐼,5.2,��
2020/02/24,11:50,0.699,0.994,0.658,1.229,0.877,0.401,0.697,0.663,��,3.9,�L
2020/02/24,12:00,0.697,0.994,0.656,1.230,0.876,0.401,0.698,0.663,��,3.4,��
2020/02/24,12:10,0.698,0.996,0.658,1.230,0.876,0.401,0.698,0.662,��,4.8,�L
2020/02/24,12:20,0.698,0.993,0.657,1.229,0.877,0.403,0.699,0.662,��,7.1,�L
2020/02/24,12:30,0.698,0.992,0.658,1.229,0.876,0.403,0.698,0.662,���쐼,6.0,��
2020/02/24,12:40,0.697,0.992,0.658,1.232,0.877,0.402,0.698,0.663,��,6.7,��
2020/02/24,12:50,0.699,0.992,0.658,1.234,0.877,0.402,0.700,0.664,��,8.0,��
2020/02/24,13:00,0.698,0.993,0.658,1.230,0.878,0.403,0.700,0.666,��,8.9,��
2020/02/24,13:10,0.698,0.997,0.659,1.232,0.875,0.402,0.698,0.664,��,8.1,��
2020/02/24,13:20,0.698,0.993,0.657,1.232,0.874,0.404,0.700,0.664,���쐼,6.5,��
2020/02/24,13:30,0.698,0.992,0.659,1.232,0.876,0.404,0.697,0.661,���쐼,8.7,��
2020/02/24,13:40,0.698,0.994,0.657,1.234,0.876,0.403,0.699,0.661,�쐼,8.4,��
2020/02/24,13:50,0.698,0.993,0.657,1.230,0.875,0.404,0.701,0.663,���쐼,9.3,��
2020/02/24,14:00,0.697,0.992,0.657,1.231,0.875,0.403,0.700,0.660,���쐼,9.1,��
2020/02/24,14:10,0.698,0.993,0.659,1.232,0.875,0.403,0.697,0.662,���쐼,7.7,��
2020/02/24,14:20,0.701,0.993,0.659,1.230,0.874,0.402,0.698,0.664,��,5.8,��
2020/02/24,14:30,0.700,0.995,0.658,1.232,0.876,0.404,0.699,0.662,���쐼,5.2,��
2020/02/24,14:40,0.700,0.992,0.658,1.234,0.879,0.403,0.700,0.664,��,6.3,��
2020/02/24,14:50,0.699,0.992,0.659,1.230,0.878,0.403,0.699,0.663,���쐼,6.3,��
2020/02/24,15:00,0.698,0.997,0.658,1.233,0.879,0.403,0.699,0.663,���쐼,8.8,��
2020/02/24,15:10,0.701,0.995,0.660,1.230,0.878,0.404,0.699,0.667,���쐼,8.0,��
2020/02/24,15:20,0.700,0.998,0.657,1.231,0.881,0.404,0.700,0.666,���쐼,9.0,��
2020/02/24,15:30,0.697,0.998,0.658,1.233,0.879,0.403,0.699,0.664,���쐼,6.6,��
2020/02/24,15:40,0.699,0.997,0.661,1.233,0.878,0.405,0.700,0.665,���쐼,6.8,��
2020/02/24,15:50,0.699,0.996,0.659,1.230,0.878,0.406,0.699,0.664,��,6.0,��
2020/02/24,16:00,0.698,0.999,0.659,1.234,0.878,0.404,0.699,0.666,���쐼,5.8,��
2020/02/24,16:10,0.699,0.997,0.658,1.232,0.878,0.404,0.700,0.666,�쐼,4.0,��
2020/02/24,16:20,0.699,0.999,0.659,1.232,0.876,0.404,0.699,0.666,��,4.7,��
2020/02/24,16:30,0.699,1.000,0.659,1.233,0.875,0.404,0.700,0.666,��쐼,3.8,��
2020/02/24,16:40,0.698,1.000,0.658,1.233,0.880,0.405,0.699,0.665,��,5.8,��
2020/02/24,16:50,0.699,1.001,0.659,1.231,0.879,0.404,0.700,0.666,��,5.6,��
2020/02/24,17:00,0.699,1.002,0.659,1.233,0.878,0.404,0.701,0.666,��,4.4,��
2020/02/24,17:10,0.698,1.001,0.658,1.233,0.877,0.404,0.699,0.666,��,5.9,��
2020/02/24,17:20,0.700,0.999,0.661,1.232,0.880,0.404,0.699,0.667,��,5.8,��
2020/02/24,17:30,0.700,1.002,0.660,1.233,0.881,0.404,0.699,0.665,��쐼,6.3,��
2020/02/24,17:40,0.698,1.001,0.659,1.233,0.880,0.403,0.700,0.665,��쐼,6.3,��
2020/02/24,17:50,0.700,1.002,0.661,1.232,0.880,0.404,0.700,0.665,��,6.1,��
2020/02/24,18:00,0.699,0.999,0.659,1.236,0.880,0.404,0.702,0.665,��쐼,3.8,��
2020/02/24,18:10,0.699,1.000,0.658,1.232,0.880,0.404,0.701,0.665,��쐼,2.6,��
2020/02/24,18:20,0.699,1.000,0.661,1.231,0.880,0.403,0.699,0.665,��,3.9,��
2020/02/24,18:30,0.699,1.001,0.660,1.233,0.878,0.402,0.701,0.666,��,4.7,��
2020/02/24,18:40,0.699,1.002,0.660,1.233,0.881,0.404,0.700,0.665,��,4.1,��
2020/02/24,18:50,0.699,0.999,0.659,1.236,0.879,0.404,0.699,0.666,��,5.0,��
2020/02/24,19:00,0.700,1.001,0.661,1.233,0.880,0.403,0.701,0.664,��,4.4,��
2020/02/24,19:10,0.700,1.000,0.659,1.234,0.879,0.404,0.702,0.665,��쐼,4.9,��
2020/02/24,19:20,0.699,1.002,0.658,1.232,0.880,0.403,0.701,0.665,��쐼,3.6,��
2020/02/24,19:30,0.699,1.002,0.661,1.232,0.881,0.405,0.700,0.665,��,3.3,��
2020/02/24,19:40,0.700,1.003,0.659,1.232,0.879,0.404,0.701,0.665,��쐼,5.9,��
2020/02/24,19:50,0.699,1.000,0.658,1.236,0.878,0.404,0.700,0.666,�쐼,5.7,��
2020/02/24,20:00,0.702,1.000,0.659,1.232,0.879,0.403,0.700,0.664,��쐼,4.2,��
2020/02/24,20:10,0.701,1.002,0.659,1.232,0.879,0.403,0.700,0.665,�쐼,4.1,��
2020/02/24,20:20,0.700,1.001,0.658,1.232,0.881,0.405,0.701,0.666,��쐼,5.3,��
2020/02/24,20:30,0.697,0.999,0.660,1.233,0.879,0.402,0.701,0.665,��쐼,5.0,��
2020/02/24,20:40,0.701,1.000,0.658,1.234,0.880,0.405,0.700,0.665,�쐼,5.7,��
2020/02/24,20:50,0.701,0.999,0.659,1.233,0.881,0.404,0.700,0.664,�쐼,6.6,��
2020/02/24,21:00,0.701,1.001,0.659,1.232,0.879,0.404,0.700,0.664,�쐼,6.5,��
2020/02/24,21:10,0.699,1.000,0.660,1.233,0.879,0.402,0.702,0.663,�쐼,6.6,��
2020/02/24,21:20,0.700,0.999,0.659,1.233,0.881,0.402,0.702,0.665,�쐼,7.3,��
2020/02/24,21:30,0.702,1.001,0.660,1.233,0.883,0.403,0.703,0.664,�쐼,7.0,��
2020/02/24,21:40,0.701,0.999,0.659,1.235,0.880,0.404,0.701,0.666,���쐼,6.8,��
2020/02/24,21:50,0.701,1.002,0.660,1.233,0.882,0.404,0.702,0.666,���쐼,5.9,��
2020/02/24,22:00,0.700,1.000,0.659,1.233,0.882,0.402,0.699,0.666,���쐼,5.7,��
2020/02/24,22:10,0.701,1.000,0.659,1.234,0.881,0.404,0.701,0.666,�쐼,5.0,��
2020/02/24,22:20,0.700,1.001,0.659,1.233,0.881,0.402,0.701,0.666,���쐼,4.6,��
2020/02/24,22:30,0.699,1.003,0.659,1.234,0.882,0.402,0.701,0.664,���쐼,5.2,��
2020/02/24,22:40,0.702,1.000,0.660,1.234,0.879,0.402,0.701,0.667,�쐼,5.1,��
2020/02/24,22:50,0.700,1.002,0.660,1.233,0.882,0.403,0.701,0.665,���쐼,8.1,��
2020/02/24,23:00,0.700,1.001,0.658,1.235,0.882,0.403,0.701,0.665,��,7.1,��
2020/02/24,23:10,0.700,1.000,0.661,1.236,0.880,0.403,0.701,0.666,���k��,5.9,��
2020/02/24,23:20,0.701,1.002,0.661,1.236,0.880,0.404,0.701,0.665,���k��,6.1,�L
2020/02/24,23:30,0.701,1.002,0.659,1.233,0.879,0.404,0.700,0.664,�k��,6.0,�L
2020/02/24,23:40,0.700,1.001,0.661,1.235,0.879,0.404,0.700,0.667,�k��,5.2,��
2020/02/24,23:50,0.699,1.004,0.661,1.233,0.881,0.403,0.699,0.665,�k�k��,4.3,��
